Theta_e
347 344 333 326 311 308 303 304 311 313 312 320 324 319 318 322 312 306 331 337 343 346 350 353 358 355 355 354 353 353 352 352 351 350 349 348 347 347 347 346 346 345 342 342 341 341 340 340 341
336 335 329 321 307 301 302 308 309 313 315 321 321 317 315 315 329 330 331 340 344 347 346 351 357 356 355 354 353 353 352 352 351 350 348 347 346 345 345 346 346 345 343 342 341 338 338 339 340
338 337 322 312 308 301 304 307 312 316 319 319 318 321 317 315 327 329 335 341 344 343 345 350 357 358 355 355 354 353 352 352 351 350 349 348 347 347 347 347 347 346 345 344 344 342 339 339 339
331 323 320 312 307 310 313 311 316 316 317 320 320 314 320 324 322 334 339 342 338 339 343 355 359 358 356 355 354 353 353 352 351 350 350 350 350 350 351 348 348 348 347 346 345 346 344 341 340
326 317 309 310 310 314 315 313 314 315 316 317 318 312 314 327 333 335 339 338 340 344 347 350 358 357 356 356 355 354 353 352 351 351 351 351 352 352 352 351 351 350 349 349 348 350 349 345 344
313 312 304 304 308 315 315 317 317 316 317 318 316 315 317 329 331 333 337 344 347 345 345 348 355 358 359 357 356 356 355 355 353 352 352 351 351 353 353 353 352 351 351 351 351 353 351 347 345
311 306 303 307 309 313 315 319 314 315 318 319 323 315 320 327 331 331 334 337 339 341 341 340 348 353 358 359 358 357 356 355 354 353 351 350 350 350 351 352 351 350 353 353 353 354 352 350 346
311 309 306 307 307 308 316 318 318 315 318 327 330 315 316 324 330 330 330 333 336 338 340 338 337 339 351 352 355 355 357 355 355 354 352 350 350 350 349 349 348 347 350 348 351 353 353 351 348
310 300 304 307 308 310 317 315 320 325 325 327 327 325 327 331 332 330 326 328 332 333 332 334 335 342 346 349 350 354 355 351 352 350 349 344 334 336 340 344 346 347 348 346 348 350 349 348 349
304 301 307 313 314 312 315 314 319 319 323 322 324 328 331 333 331 329 328 327 327 331 333 335 337 341 342 349 345 345 347 345 341 338 338 335 334 334 341 343 346 346 344 345 342 340 343 341 340
309 307 314 316 317 317 315 317 321 317 314 323 322 326 328 329 329 329 327 330 330 331 333 335 338 341 341 341 342 342 341 338 336 337 336 335 335 335 336 336 334 335 339 338 340 340 337 334 334
312 316 316 317 320 315 314 320 320 322 323 327 330 330 328 328 328 326 325 327 332 335 336 339 340 338 337 341 338 337 337 333 335 335 335 334 328 332 334 334 331 332 333 335 333 334 332 332 335
313 315 318 320 317 315 319 319 320 323 327 328 329 330 328 328 327 327 330 334 336 333 334 333 328 328 329 333 336 336 331 329 335 332 330 331 330 331 331 332 329 330 333 329 328 327 327 328 333
315 315 316 316 313 316 318 320 321 326 331 329 329 328 329 330 331 330 334 334 332 330 326 325 326 326 326 325 328 333 333 334 335 331 332 332 331 331 328 326 326 327 331 331 331 328 328 331 331
315 310 311 312 313 315 323 317 319 328 332 329 330 333 332 332 335 333 333 331 328 327 324 322 324 324 322 322 322 324 333 332 330 328 326 324 322 324 323 319 318 320 326 330 329 329 328 327 328
309 305 301 311 315 318 319 310 323 325 325 324 324 331 332 333 334 331 330 328 328 324 321 322 323 322 319 318 320 322 329 328 325 324 321 319 319 317 315 314 315 314 318 320 320 320 320 321 322
305 298 301 308 316 317 315 311 320 324 321 322 322 326 329 329 329 329 329 326 325 324 320 320 319 318 318 316 317 316 321 320 320 319 317 316 318 316 312 312 312 313 312 313 314 313 313 312 312
302 301 301 306 314 315 312 312 319 321 319 317 316 322 326 327 326 329 328 325 323 324 323 320 318 317 317 314 315 314 315 315 317 316 317 317 316 316 311 311 311 311 310 311 311 309 309 309 309
307 306 305 310 314 311 311 309 313 319 319 319 320 318 324 325 328 328 327 325 323 322 321 319 316 315 315 312 311 311 310 310 314 315 317 316 316 315 312 311 311 310 309 309 309 308 307 308 309
307 306 305 310 314 311 311 310 313 315 319 319 318 325 323 324 324 325 323 322 321 320 319 319 317 314 313 311 310 310 309 310 309 313 313 317 316 315 315 311 311 310 309 310 308 306 305 306 308
305 303 304 306 310 310 309 307 308 314 319 318 316 319 323 321 319 321 320 320 320 319 318 317 316 314 312 311 310 311 310 309 310 310 311 312 315 316 314 313 311 311 309 308 308 308 306 304 306
303 311 311 309 304 297 307 296 304 309 312 315 316 317 318 319 317 317 318 317 318 319 319 316 315 314 313 311 307 307 306 305 306 307 309 310 312 314 316 314 312 310 309 309 308 311 307 305 303
307 312 310 308 303 301 304 298 301 310 307 310 314 316 316 316 313 313 315 316 319 318 315 314 314 312 311 310 307 306 306 306 307 308 308 309 310 312 315 314 311 310 309 308 308 308 307 306 304
313 309 306 303 301 293 301 301 301 304 307 312 315 316 312 310 311 313 314 314 317 317 315 313 312 310 310 310 309 307 307 307 307 307 308 308 308 310 311 312 310 309 308 308 307 307 307 306 305
303 298 292 293 293 292 303 300 300 308 314 315 314 311 311 311 310 311 311 312 313 313 313 312 311 309 309 309 309 308 307 308 307 307 307 307 308 308 309 308 308 308 308 309 308 306 306 306 305
302 300 293 288 290 294 304 298 303 313 313 316 316 311 310 309 309 311 311 312 311 314 313 310 309 308 308 309 308 308 308 308 308 308 308 308 307 308 309 308 308 308 309 310 308 306 306 306 305
304 299 302 294 297 296 299 305 310 313 312 315 312 311 309 309 310 311 311 311 310 311 310 309 309 308 309 309 308 308 309 309 309 309 308 309 308 310 309 308 307 307 307 308 307 305 305 305 305
304 307 297 294 289 290 297 300 301 307 309 311 312 309 308 309 310 310 310 311 310 309 308 308 309 308 308 308 308 309 308 310 310 310 309 308 308 308 308 307 306 306 306 306 305 303 305 303 304
302 300 299 296 296 292 292 296 308 308 311 310 313 309 308 310 310 310 309 309 309 308 306 306 308 308 308 308 308 307 309 310 310 310 309 308 308 308 308 307 307 305 304 305 305 304 304 303 302
306 302 299 293 293 297 297 297 311 311 314 313 312 308 308 311 310 309 309 309 308 307 306 306 307 308 308 309 308 307 309 309 309 309 309 309 308 307 307 307 306 305 304 303 304 303 303 302 303
Wind_Speed
10 8 3 3 5 6 4 1 3 9 9 9 13 9 9 6 4 6 4 8 15 11 8 10 12 12 10 9 7 6 6 4 4 3 3 3 3 3 2 1 1 0 0 0 2 4 4 7 11
1 4 0 2 7 6 6 1 11 8 8 18 16 17 17 10 6 8 5 8 9 11 7 7 12 12 11 9 8 6 5 5 4 3 3 2 2 2 2 2 2 3 3 2 2 1 2 5 8
5 4 5 6 4 2 5 3 10 8 9 11 6 7 4 6 8 7 8 15 12 11 9 9 14 13 12 11 9 8 6 5 5 4 4 4 4 5 4 4 5 5 5 5 4 4 4 5 7
2 5 5 6 2 3 4 4 13 12 5 9 11 8 6 6 4 9 14 16 12 7 7 15 16 14 13 11 10 9 9 7 6 5 5 6 6 7 6 7 8 8 8 8 7 6 7 7 8
3 3 5 5 8 6 8 4 7 11 8 17 13 11 8 9 17 9 9 8 10 6 4 3 4 8 12 12 9 8 7 5 5 7 7 7 7 8 9 10 10 11 10 10 10 8 8 9 9
4 3 5 6 3 5 4 5 13 9 12 15 13 11 7 6 16 6 13 11 10 9 6 4 2 5 7 8 9 6 6 6 7 8 7 10 9 10 12 12 12 12 12 13 13 11 10 10 10
7 5 5 8 6 5 4 4 7 6 5 6 5 5 1 5 3 5 13 11 8 8 6 4 1 4 10 8 7 7 9 8 10 9 9 10 11 11 12 13 14 14 16 15 14 14 13 12 11
5 6 1 3 7 6 8 3 8 9 8 3 4 4 3 0 6 5 8 7 4 4 6 6 4 6 5 5 10 9 8 8 10 11 11 9 10 14 16 14 13 16 14 14 17 15 14 14 12
5 5 3 8 9 6 6 5 2 14 15 7 7 8 5 8 9 6 3 4 2 2 9 10 11 7 5 4 6 7 11 10 14 9 9 4 4 6 8 13 17 19 14 14 18 15 13 14 14
7 5 8 3 8 5 3 4 8 8 19 9 12 11 1 5 17 13 8 9 10 10 9 6 8 8 2 5 4 5 5 4 5 6 4 3 5 5 9 14 20 18 16 11 9 21 24 18 7
2 6 8 3 4 6 3 2 3 17 11 8 11 5 6 6 9 7 7 6 5 4 6 9 8 6 3 3 2 2 2 2 1 5 3 4 3 4 4 4 3 4 7 3 6 11 4 12 5
15 14 11 8 5 4 2 2 14 16 9 16 8 6 6 7 8 7 8 8 8 8 6 9 11 10 11 5 5 4 3 3 3 4 6 4 4 4 4 4 5 4 3 2 2 2 1 5 5
15 5 10 14 11 4 5 11 9 15 16 14 14 9 11 9 6 6 5 2 10 14 14 13 14 13 10 11 6 6 4 2 4 4 6 6 4 5 4 5 5 5 4 1 2 2 4 5 6
7 8 8 7 11 6 12 17 11 13 15 15 14 14 10 9 5 5 7 13 13 11 13 12 14 12 12 11 8 5 4 4 4 4 5 8 3 4 5 5 6 6 6 4 4 3 5 4 3
8 10 5 5 6 6 10 27 24 22 16 16 5 13 11 10 10 11 11 11 10 8 11 12 11 11 12 11 9 7 4 5 5 4 5 6 6 6 6 4 5 6 5 5 4 3 2 3 3
5 6 5 10 2 5 14 7 12 11 12 10 13 7 11 13 12 10 10 11 9 9 10 8 8 10 10 9 8 7 5 4 4 4 4 5 5 5 4 3 4 5 6 5 4 2 2 3 3
6 3 3 4 9 6 9 5 5 13 7 10 10 5 9 11 8 6 9 9 9 8 7 8 8 9 9 7 5 5 5 4 4 3 3 4 5 7 6 5 5 5 4 5 4 3 2 2 4
5 4 1 6 5 21 17 10 8 6 6 6 7 2 4 8 7 8 10 9 8 7 6 6 5 6 6 5 3 4 4 5 4 5 4 7 5 7 5 5 5 5 4 6 6 5 4 2 3
3 7 10 9 9 11 9 11 10 9 2 4 4 4 1 7 5 8 10 9 7 6 5 4 5 5 4 3 4 4 3 3 6 7 7 6 4 5 6 5 5 4 4 3 4 4 5 4 6
12 9 6 6 3 10 8 11 7 3 2 5 4 4 9 6 6 7 8 6 4 5 5 5 5 5 4 2 2 2 2 2 1 3 6 6 5 6 6 5 5 5 5 6 5 3 3 3 4
6 10 6 10 6 2 11 5 5 2 1 2 3 2 3 5 8 8 7 6 5 5 5 6 4 4 4 5 4 4 3 3 4 4 4 4 5 7 6 6 5 5 4 4 4 4 4 3 3
4 6 20 17 4 2 4 2 1 2 3 5 7 6 6 3 6 7 7 6 7 6 5 7 5 4 5 6 5 5 3 3 3 2 2 5 5 6 7 6 6 5 4 6 4 4 2 1 2
6 4 8 5 8 5 8 4 3 3 1 5 7 6 4 8 10 8 8 8 7 6 6 6 5 5 6 6 6 4 4 2 2 3 6 6 6 6 7 6 6 6 4 5 6 6 5 3 2
10 10 10 5 4 5 4 2 5 6 6 3 4 6 11 10 8 7 6 7 7 5 5 5 6 5 6 5 6 7 6 5 5 5 5 4 3 3 6 7 6 6 5 5 5 5 5 4 3
5 7 4 4 6 3 2 3 9 4 6 6 5 15 13 11 9 7 7 7 7 6 5 5 6 5 3 5 5 5 5 6 6 5 4 6 4 4 6 6 6 5 6 6 5 5 5 5 4
3 7 6 4 4 2 5 3 7 3 8 5 6 13 10 8 7 7 8 8 7 6 5 6 6 4 2 5 5 5 5 4 3 4 4 4 4 4 5 5 5 7 8 8 6 4 4 5 5
3 3 4 8 4 5 3 6 5 6 6 6 6 12 11 9 8 9 8 7 7 7 5 7 7 3 2 3 4 5 5 5 4 5 4 3 4 4 6 6 6 6 8 8 7 5 7 6 6
3 3 6 5 3 1 3 4 5 2 5 7 9 12 9 7 8 7 7 7 6 6 5 6 6 6 3 3 3 3 4 5 5 4 5 6 5 6 6 6 5 6 7 9 7 5 7 7 7
5 4 6 5 5 6 3 7 6 8 8 9 3 11 13 11 8 7 7 6 7 6 6 7 6 5 4 2 1 2 4 6 5 4 5 5 5 6 6 6 6 7 7 8 7 7 7 7 7
5 6 6 7 4 3 5 6 4 9 8 9 7 10 10 12 9 8 8 8 7 7 5 6 5 5 4 3 1 2 4 5 5 4 5 5 5 5 6 7 6 6 6 6 6 6 6 6 7
Wind_Direction
173 178 170 82 50 62 298 18 145 77 55 66 66 69 78 69 112 152 1 155 132 140 150 149 146 139 136 136 138 140 139 137 139 145 151 154 153 148 145 99 6 333 179 320 354 4 9 355 346
251 159 130 80 72 46 315 313 70 94 134 99 92 80 68 60 71 125 97 145 151 140 143 144 147 148 152 157 156 156 157 160 176 188 199 222 227 209 199 217 245 252 244 259 266 271 320 327 330
224 236 58 77 34 358 291 324 109 93 99 95 87 68 75 120 125 141 144 155 158 155 156 163 161 164 168 169 159 167 183 200 204 203 228 240 251 259 252 255 267 271 262 253 261 277 283 293 308
63 21 41 60 338 316 326 298 112 106 72 85 109 63 30 28 109 166 156 157 155 153 172 172 169 172 173 176 178 185 189 200 217 223 233 235 246 254 256 263 263 261 263 265 258 256 265 273 286
64 70 58 53 26 276 330 346 2 86 86 86 93 96 77 30 62 84 135 123 105 119 122 36 223 191 180 183 187 205 210 213 232 240 243 247 248 256 261 258 257 257 260 262 259 246 241 254 266
33 75 100 155 233 248 268 27 57 37 90 96 90 105 52 285 79 77 94 105 122 120 108 92 232 249 249 213 196 201 232 238 241 251 258 263 256 252 256 260 264 262 260 254 250 245 240 237 250
141 89 192 131 181 311 267 224 78 59 31 65 117 72 97 16 2 77 111 110 105 113 96 43 6 263 250 243 225 210 222 236 247 247 252 258 268 268 259 255 257 258 256 252 250 244 239 230 238
124 108 195 165 165 234 253 204 123 103 108 267 115 133 192 302 331 305 77 72 80 110 101 61 13 305 240 236 233 232 239 249 260 256 248 253 256 263 258 264 262 257 268 283 263 251 246 243 231
123 89 146 187 160 223 284 113 42 93 70 32 3 89 122 196 130 45 91 89 11 4 34 7 347 340 244 243 253 248 246 252 261 260 271 311 305 299 308 298 286 284 288 312 270 267 280 280 252
132 119 191 124 162 189 283 55 168 116 89 73 81 90 47 276 51 37 5 25 20 18 8 356 331 331 35 233 247 251 261 276 325 351 304 305 298 298 311 309 297 306 326 290 340 321 321 316 291
122 105 121 138 175 135 187 8 20 97 97 122 116 93 52 29 57 52 34 30 29 348 341 323 329 1 17 27 283 260 260 14 311 261 318 262 336 349 329 319 323 318 320 243 188 226 207 287 304
94 136 153 176 144 89 272 248 70 99 108 124 114 133 130 85 62 59 47 19 351 339 327 358 12 10 8 358 355 316 44 31 19 354 344 0 11 354 335 358 345 338 337 7 350 231 177 253 266
100 142 135 156 98 83 38 26 74 97 114 122 123 134 95 78 85 62 56 6 47 36 34 26 17 11 10 28 25 60 90 43 29 27 15 24 5 4 4 5 348 342 322 331 179 258 263 261 256
198 141 139 86 114 114 68 31 39 120 113 91 97 98 122 135 117 76 64 51 51 39 29 23 22 13 22 23 23 18 31 26 34 34 7 46 2 21 29 11 7 343 354 344 352 332 319 318 323
124 97 109 135 128 98 99 28 24 11 57 50 88 109 113 109 100 88 93 83 73 48 38 27 25 15 29 14 9 18 42 54 47 47 17 29 35 35 23 10 348 344 354 4 5 334 305 320 295
89 56 76 8 155 46 90 112 135 68 359 55 44 70 108 92 94 92 91 87 77 65 44 26 22 25 29 16 359 21 38 52 48 49 33 33 46 54 37 23 2 343 1 4 359 15 328 309 304
8 98 74 24 354 107 59 170 162 118 240 108 97 33 108 99 105 115 104 104 97 89 63 40 26 27 18 15 356 12 32 33 25 27 22 27 42 34 31 21 354 3 9 3 353 339 8 16 337
229 84 267 117 38 85 94 132 141 117 191 188 116 77 48 141 152 137 115 101 92 93 77 61 35 31 10 349 6 11 20 16 14 359 30 32 16 29 31 10 11 2 15 11 358 345 344 10 318
119 97 106 112 121 70 96 121 147 160 138 247 128 86 194 182 162 125 119 107 99 92 111 83 57 25 17 345 2 13 22 352 40 34 53 56 31 20 20 3 2 1 17 353 356 329 338 332 346
87 106 100 65 359 104 158 150 158 168 209 260 143 162 172 169 146 134 112 115 127 140 127 97 66 49 28 22 343 22 356 352 340 18 19 16 32 19 29 11 5 9 3 0 1 16 324 307 348
136 149 172 146 148 108 159 132 155 84 124 314 311 290 266 180 143 132 133 157 156 157 115 104 100 74 50 43 20 14 7 16 13 359 6 351 16 13 9 4 10 7 8 355 337 346 3 315 306
111 166 142 157 157 154 79 120 161 192 238 235 234 219 249 132 135 133 158 180 170 145 130 96 102 97 59 42 52 51 59 29 316 315 313 340 4 2 9 7 9 9 352 354 337 345 332 336 333
187 104 115 112 81 75 342 80 203 306 127 197 218 233 227 146 146 157 186 178 155 143 119 105 112 89 60 57 60 61 47 13 308 349 8 358 5 6 6 9 7 6 356 345 350 349 355 347 309
109 84 63 65 100 51 269 97 296 167 178 170 189 117 131 143 150 166 166 121 133 136 115 106 109 86 65 63 54 57 47 15 18 360 14 354 342 1 7 8 7 1 352 347 339 334 343 340 324
94 81 18 351 23 223 351 26 240 186 189 183 135 133 154 150 145 152 142 125 143 142 131 116 116 86 79 73 55 43 39 37 25 7 10 3 345 354 5 6 3 359 343 345 344 348 342 335 335
86 136 153 233 171 223 2 265 268 254 173 124 108 142 141 133 147 133 121 126 139 145 131 114 123 109 78 60 39 21 23 43 26 30 12 6 349 346 347 6 9 3 3 356 350 347 349 346 346
324 346 193 110 64 87 240 282 350 65 86 120 145 145 148 160 135 119 123 128 119 136 138 131 138 116 76 57 40 15 11 36 29 28 23 343 354 350 356 5 22 8 8 1 355 2 359 355 353
84 228 30 9 99 62 290 291 238 174 174 166 181 138 148 129 127 124 137 132 118 120 127 126 145 143 143 82 36 13 0 20 26 33 20 13 359 1 360 356 23 17 14 3 358 357 356 6 358
10 18 55 104 128 150 164 265 204 190 163 174 155 146 152 149 155 147 139 134 138 129 111 126 155 157 145 110 45 23 15 20 30 34 18 15 16 8 4 346 13 24 23 10 6 3 359 7 357
163 168 126 114 275 98 129 272 344 174 176 166 158 160 154 158 162 150 147 139 141 127 121 114 149 167 187 166 88 52 40 26 39 29 23 16 18 7 356 0 25 14 20 21 12 4 356 3 7